GLOBALSTAR M086 [+]

Last updated on July 6, 2021, 3:36 p.m. UTC

1 38045U 11080F   21186.85733100 -.00000109  00000-0 -30700-4 0  9991
2 38045  51.9909  71.9631 0001933  31.6989  46.8243 12.62266397441419
UTC
Height (km)
Latitude
Longitude
Inclination
Orbital Period
UTC large
Height (km)
Speed (km/s)
/
Latitude / Longitude
Inclination (degrees)
Orbital Period (minutes)
Azimuth
Elevation
Range (km)
Doppler Factor
iOS Compass Heading
iOS Angle